DRAUGEN current weather conditions

sailwx.info

Wind from 190 at 38 knots gusting 49

Air temperature 7.0° C
Dewpoint -0.0° C

Last reported at 2015-Feb-27 13:50 UTC.
Time now 2015-Feb-27 15:26 UTC

Location: N 64°22' E 007°47'.
View on Google Maps.

See reports from other nearby stations

  
Tides and Currents Weather Stations Pressure Air Temp Water Temp Dewpoint Dewpoint Depression Visibility Wind Speed Wind Dir Waves Ship Positions
date/time (UTC)wind fromknots sea level pressurealtimeterstation pressurevisibilityair tempwater tempwave heightnotes
2015-Feb-27 14:20 200 41 6.0
2015-Feb-27 13:50 190 38 gusting 49 7.0
2015-Feb-27 13:20 190 37 7.0
2015-Feb-27 12:50 180 30 7.0
2015-Feb-27 12:10 180 33 5.4 7.0
2015-Feb-27 11:50 180 30 6.0
2015-Feb-27 11:20 180 32 6.0
2015-Feb-27 10:50 180 32 6.0
2015-Feb-27 10:20 190 33 6.0
2015-Feb-27 09:50 190 34 6.0
2015-Feb-27 09:20 190 32 6.0
2015-Feb-27 08:50 190 33 6.0
2015-Feb-27 08:20 190 31 6.0
2015-Feb-27 07:50 200 35 6.0
2015-Feb-27 07:20 190 34 6.0
2015-Feb-27 06:50 190 32 6.0
2015-Feb-27 06:10 190 30 5.4 6.0
2015-Feb-27 05:50 200 33 6.0
2015-Feb-27 05:20 200 34 6.0
2015-Feb-27 04:50 200 35 6.0
2015-Feb-27 04:20 200 36 6.0
2015-Feb-27 03:50 200 34 6.0
2015-Feb-27 03:20 200 35 6.0
2015-Feb-27 02:50 200 36 6.0
2015-Feb-27 02:20 200 33 6.0
2015-Feb-27 01:50 210 33 6.0
2015-Feb-27 01:20 200 27 5.0
2015-Feb-27 00:50 200 32 6.0
2015-Feb-27 00:20 200 31 6.0
2015-Feb-26 23:50 200 30 6.0
2015-Feb-26 23:20 210 31 6.0
2015-Feb-26 22:50 210 30 6.0
2015-Feb-26 22:20 200 29 6.0
2015-Feb-26 21:50 200 29 5.0
2015-Feb-26 21:20 200 31 5.0
2015-Feb-26 20:50 200 30 5.0
2015-Feb-26 20:20 210 26 5.0
2015-Feb-26 19:50 210 26 5.0
2015-Feb-26 19:20 210 27 5.0
2015-Feb-26 18:50 200 24 5.0
2015-Feb-26 18:20 200 20 5.0
2015-Feb-26 17:50 200 20 5.0
2015-Feb-26 16:20 190 20 5.0
2015-Feb-26 15:50 190 19 5.0
2015-Feb-26 15:20 170 20 5.0
2015-Feb-26 14:50 180 22 5.0
2015-Feb-26 14:20 190 22 5.0
2015-Feb-26 13:50 180 26 5.0
2015-Feb-26 13:20 170 22 5.0
2015-Feb-26 12:50 170 25 5.0
2015-Feb-26 12:10 160 29 3.8 4.0 Rain.
2015-Feb-26 11:50 140 29 4.0
2015-Feb-26 11:20 140 27 4.0
2015-Feb-26 10:50 140 30 4.0
2015-Feb-26 10:20 140 31 3.0
2015-Feb-26 09:50 140 31 3.0
2015-Feb-26 09:10 140 31 2.7 2.0 Rain.
2015-Feb-26 08:50 140 29 2.0
2015-Feb-26 08:20 2.0
2015-Feb-26 07:50 150 27 2.0
2015-Feb-26 07:20 150 25 4.0
2015-Feb-26 06:50 140 24 6.0
2015-Feb-26 06:20 130 26 5.0
2015-Feb-26 05:50 130 24 5.0
2015-Feb-26 05:20 130 26 5.0
2015-Feb-26 04:50 130 26 5.0
2015-Feb-26 04:20 130 26 5.0
2015-Feb-26 03:50 130 25 6.0
2015-Feb-26 03:20 130 27 6.0
2015-Feb-26 02:50 140 23 5.0
2015-Feb-26 02:20 150 20 6.0
2015-Feb-26 01:50 190 20 6.0
2015-Feb-26 01:20 200 24 6.0
2015-Feb-26 00:50 210 27 6.0
2015-Feb-26 00:20 210 29 6.0
2015-Feb-25 23:50 210 25 6.0
2015-Feb-25 23:20 210 22 6.0
2015-Feb-25 22:50 210 23 6.0
2015-Feb-25 22:20 210 20 5.0
2015-Feb-25 21:50 220 22 6.0
2015-Feb-25 21:20 220 19 6.0
2015-Feb-25 20:50 220 20 6.0
2015-Feb-25 20:20 220 22 5.0
2015-Feb-25 19:50 230 18 6.0
2015-Feb-25 19:20 230 16 6.0
2015-Feb-25 18:50 240 18 6.0
2015-Feb-25 18:20 230 13 6.0
2015-Feb-25 17:50 230 10 6.0
2015-Feb-25 17:20 220 10 6.0
2015-Feb-25 16:50 220 10 5.0
2015-Feb-25 16:20 220 14 5.0
2015-Feb-25 15:50 220 13 6.0
2015-Feb-25 15:10 230 14 5.4 5.0 Showers in the vicinity.